Regional Weather Roundup
Issued by NWS

Home | Current Version | Previous Version | Graphics & Text | Print | Product List | Glossary Off
Versions: 1 2 3 4 5 6 7 8 9 10 11 12 13 14 15 16 17 18 19 20 21 22 23 24 25 26 27 28 29 30 31 32 33 34 35 36 37 38 39 40 41 42 43 44 45 46 47 48 49 50

000
ASUS43 KTOP 060508
RWRKS

WEATHER ROUNDUP FOR KANSAS
NATIONAL WEATHER SERVICE GOODLAND KS
1100 PM CST MON DEC 05 2016

NOTE:  "FAIR" INDICATES FEW OR NO CLOUDS BELOW 12,000 FEET WITH NO
SIGNIFICANT WEATHER AND/OR OBSTRUCTIONS TO VISIBILITY.

KSZ001>006-013>018-027>032-041>047-060600-
NORTHWEST KANSAS

CITY           SKY/WX    TMP DP  RH WIND       PRES   REMARKS
GOODLAND       CLEAR     23  12  62 N12       29.93R WCI  12
HAYS           CLOUDY    36  26  67 N21G31    29.87R WCI  25
HILL CITY      CLOUDY    33  18  53 N23G32    29.92R WCI  21
RUSSELL        CLOUDY    36  27  69 N18G37    29.85R WCI  26
$$

KSZ061>065-074>080-084>089-060600-
SOUTHWEST KANSAS

CITY           SKY/WX    TMP DP  RH WIND       PRES   REMARKS
DODGE CITY     CLEAR     38  24  57 N28G38    29.81R WCI  26
ELKHART          N/A     31   7  36 N15         N/A  WCI  20
GARDEN CITY    CLEAR     34  20  56 N25       29.84R WCI  21
GREAT BEND     CLEAR     39  32  76 N26       29.82R WCI  28
LIBERAL        CLEAR     36  14  41 N28G35    29.81R WCI  23
PRATT          CLOUDY    32  30  94 NW9       29.78R
$$

KSZ066>073-081>083-090>101-060600-
SOUTHEAST KANSAS

CITY           SKY/WX    TMP DP  RH WIND       PRES   REMARKS
CHANUTE        FOG       29  29 100 CALM      29.75S VSB 3/4
COFFEYVILLE    PTCLDY    32  32 100 NW3       29.77R FOG
HUTCHINSON     CLEAR     31  30  96 W5        29.76R
MEDICINE LODGE   N/A     33  32  96 N3        29.75R
NEWTON         CLEAR     34  33  96 S6        29.76R
PARSONS        CLOUDY    29  28  96 CALM      29.76S FOG
WICHITA INTL   CLEAR     36  35  96 CALM      29.75R
WICHITA JABRA  CLEAR     36  36 100 S3        29.75R
WICHITA MCCONL CLEAR     36  35  95 S3        29.75R
WINFIELD       CLEAR     36  34  92 CALM      29.75S
$$

KSZ007>012-019>026-033>040-048>060-102>105-060600-
NORTHEAST KANSAS

CITY           SKY/WX    TMP DP  RH WIND       PRES   REMARKS
CONCORDIA      CLOUDY    36  28  73 N18G25    29.85R WCI  26
EMPORIA        CLEAR     34  34 100 S3        29.76R FOG
LAWRENCE       CLEAR     30  30 100 E5        29.77S
MANHATTAN      CLOUDY    39  35  86 W7        29.79R
MARYSVILLE     CLOUDY    37  32  81 N21       29.82R WCI  27
OLATHE IND     CLEAR     31  29  92 CALM      29.77R
OLATHE EXE     CLEAR     33  30  88 CALM      29.77R
SALINA         PTCLDY    41  35  79 N23G30    29.81R
TOPEKA BILLARD CLEAR     34  30  85 CALM      29.78R
TOPEKA FORBES  CLEAR     34  31  88 S5        29.77R
$$




USA.gov is the U.S. government's official web portal to all federal, state and local government web resources and services.